Skip Page Navigation
NASA JPL Caltech
NASA Logo - Jet Propulsion Laboratory + View the NASA Portal
+ Center for Near-Earth Object Studies
JPL Home Earth Solar System Stars & Galaxies Technology
JPL Solar System Dynamics
BODIES ORBITS EPHEMERIDES TOOLS PHYSICAL DATA DISCOVERY FAQ SITE MAP
JPL Small-Body Database Browser
Search: [ help ]  
357134 (2002 AD105)
Classification: Main-belt Asteroid          SPK-ID: 2357134
Ephemeris | Orbit Diagram | Orbital Elements | Mission Design | Physical Parameters | Discovery Circumstances ]

[ show orbit diagram ]
Orbital Elements at Epoch 2459000.5 (2020-May-31.0) TDB
Reference: JPL 11 (heliocentric ecliptic J2000)
 Element Value Uncertainty (1-sigma)   Units 
e .1347130205781513 5.2745e-08  
a 2.351083844220527 1.4428e-08 au
q 2.034362237933088 1.2239e-07 au
i 2.064689087451768 5.7439e-06 deg
node 312.2575670734213 0.000163 deg
peri 156.9381294055805 0.00016581 deg
M 40.91446300711316 2.5831e-05 deg
tp 2458850.850607758123
(2020-Jan-02.35060776)
9.4546e-05 TDB
period 1316.741739900371
3.61
1.212e-05
3.318e-08
d
yr
n .2734021327730059 2.5166e-09 deg/d
Q 2.667805450507966 1.6371e-08 au
  Orbit Determination Parameters
   # obs. used (total)      143  
   data-arc span      8121 days (22.23 yr)  
   first obs. used      1997-11-08  
   last obs. used      2020-02-02  
   planetary ephem.      DE431  
   SB-pert. ephem.      SB431-N16  
   condition code      0  
   norm. resid. RMS      .58547  
   source      ORB  
   producer      Otto Matic  
   solution date      2020-Feb-26 00:28:00  

Additional Information
 Earth MOID = 1.05127 au 
 Jupiter MOID = 2.43432 au 
 T_jup = 3.544 
[ show covariance matrix ]

Ephemeris | Orbit Diagram | Orbital Elements | Mission Design | Physical Parameters | Discovery Circumstances ]

Physical Parameter Table
Parameter Symbol Value Units Sigma Reference Notes
absolute magnitude H 18.0   n/a MPO455578  

357134 (2002 AD105)          Discovered 2002-Jan-09 by LINEAR at Socorro
Reference: 20130327/Numbers.arcLast Updated: 2013-03-29

Alternate Designations
 2002 AD105 = 2004 TT24 
Ephemeris | Orbit Diagram | Orbital Elements | Mission Design | Physical Parameters | Discovery Circumstances ]
ABOUT SSD CREDITS/AWARDS PRIVACY/COPYRIGHT GLOSSARY LINKS
FirstGov 2020-Jul-07 01:07 UT
(server date/time)  
NASA Home Page
Site Manager:   Ryan S. Park
Webmaster  Alan B. Chamberlin